[Iaude] MPEC V158: 2023 VB5 [a=1.28,e=0.22,i=16.0,H=23.3]
    mpec at marsden.cfa.harvard.edu 
    mpec at marsden.cfa.harvard.edu
       
    Thu Nov  9 23:58:06 EST 2023
    
    
  
M.P.E.C. 2023-V158                            Issued 2023 November 10, 04:56 UT
     The Minor Planet Electronic Circulars contain information on unusual
         minor planets, routine data on comets and natural satellites,
         and occasional editorial announcements.  They are published
    on behalf of Division F of the International Astronomical Union by the
          Minor Planet Center, Smithsonian Astrophysical Observatory,
                          Cambridge, MA 02138, U.S.A.
			  
             Prepared using the Tamkin Foundation Computer Network
                              MPC at CFA.HARVARD.EDU
            URL https://www.minorplanetcenter.net/    ISSN 1523-6714
                                    2023 VB5                                    
Observations:
     K23V05B*1C2023 11 08.27367901 53 47.951-01 06 56.84         21.17GVEV158G96
     K23V05B 1C2023 11 08.27888701 53 47.062-01 06 29.84         21.02GVEV158G96
     K23V05B 1C2023 11 08.28408401 53 46.151-01 06 02.70         20.06GVEV158G96
     K23V05B 1C2023 11 08.28928301 53 45.222-01 05 35.09         20.76GVEV158G96
     K23V05B  C2023 11 08.34612401 53 37.473-01 00 31.82         20.90wXEV158F51
     K23V05B KC2023 11 08.35548501 53 33.828-00 59 51.68         20.69GVEV158I52
     K23V05B KC2023 11 08.35751601 53 33.475-00 59 40.99         20.84GVEV158I52
     K23V05B KC2023 11 08.35954901 53 33.137-00 59 30.59         20.85GVEV158I52
     K23V05B  C2023 11 08.36054101 53 34.954-00 59 17.18         20.83wXEV158F51
     K23V05B KC2023 11 08.36157201 53 32.788-00 59 19.82         20.84GVEV158I52
     K23V05B  C2023 11 08.37563201 53 32.303-00 57 58.86         21.05wXEV158F51
     K23V05B mC2023 11 09.17051801 51 31.151+00 09 38.41         21.11GVEV158I52
     K23V05B mC2023 11 09.17126801 51 31.014+00 09 41.58         21.76GVEV158I52
     K23V05B mC2023 11 09.17201801 51 30.884+00 09 45.97               VEV158I52
     K23V05B mC2023 11 09.17276701 51 30.787+00 09 50.15               VEV158I52
     K23V05B KC2023 11 09.19253301 51 27.30 +00 11 28.3          20.5 GXEV158858
     K23V05B KC2023 11 09.20031401 51 26.03 +00 12 07.3          20.5 GXEV158858
     K23V05B KC2023 11 10.17707401 49 03.936+01 32 43.37         21.02GVEV158I52
     K23V05B KC2023 11 10.17963901 49 03.490+01 32 55.82         20.34GVEV158I52
     K23V05B KC2023 11 10.18220501 49 03.148+01 33 08.68         20.91GVEV158I52
     K23V05B KC2023 11 10.18476901 49 02.752+01 33 20.81         20.97GVEV158I52
Observer details:
858 Tebbutt Observatory, Edgewood.  Observer F. B. Zoltowski.  0.51-m f/8.1
    Schmidt-Cassegrain + CCD.
F51 Pan-STARRS 1, Haleakala.  Observers J. Bulger, T. Lowe, P. Minguez, A.
    Schultz, I. Smith.  Measurers K. Chambers, T. de Boer, J. Fairlamb, H.
    Gao, M. Huber, C.-C. Lin, E. Magnier, Y. Ramanjooloo, R. Wainscoat, R.
    Weryk.  1.8-m Ritchey-Chretien + CCD.
G96 Mt. Lemmon Survey.  Observer D. Rankin.  Measurers E. C. Beshore, D. Fay,
    J. B. Fazekas, D. C. Fuls, A. R. Gibbs, A. D. Grauer, H. Groeller, J. K.
    Hogan, R. A. Kowalski, S. M. Larson, G. J. Leonard, D. Rankin, R. L.
    Seaman, F. C. Shelly, K. W. Wierzchos.  1.5-m reflector + 10K CCD.
I52 Steward Observatory, Mt. Lemmon Station.  Observer H. Groeller.  Measurers
    E. C. Beshore, D. Fay, J. B. Fazekas, D. C. Fuls, A. R. Gibbs, A. D.
    Grauer, H. Groeller, J. K. Hogan, R. A. Kowalski, S. M. Larson, G. J.
    Leonard, D. Rankin, R. L. Seaman, F. C. Shelly, K. W. Wierzchos.  1.0-m
    prime focus + CCD.
Orbital elements:
2023 VB5                                                 Earth MOID = 0.1582 AU
Epoch 2023 Sept. 13.0 TT = JDT 2460200.5                MPC                     
M  16.75857              (2000.0)            P               Q                  
n   0.67905308     Peri.  274.04303     +0.77001712     +0.60302948             
a   1.2819376      Node    49.01819     -0.41851503     +0.72393288             
e   0.2214724      Incl.   16.02470     -0.48157948     +0.33507706             
P   1.45           H   23.35          G   0.15           U   8                  
Residuals in seconds of arc
231108 G96  0.3-  0.0     231108 I52  0.1+  0.1-    231109 I52  0.1-  0.2+
231108 G96  0.0   0.2-    231108 F51  0.2+  0.1-    231109 858  0.3-  0.5+
231108 G96  0.1-  0.0     231108 I52  0.0   0.1+    231109 858  0.1-  0.3+
231108 G96  0.4-  0.5+    231108 F51  0.2+  0.0     231110 I52  0.0   0.0
231108 F51  0.1+  0.1+    231109 I52  0.2-  0.2-    231110 I52  0.6-  0.1-
231108 I52  0.1+  0.1-    231109 I52  0.4-  0.8-    231110 I52  0.2+  0.3+
231108 I52  0.0   0.0     231109 I52  0.5-  0.2-    231110 I52  0.3+  0.0
Ephemeris:
2023 VB5                 a,e,i = 1.28, 0.22, 16                  q = 0.9980
Date    TT    R. A. (2000) Decl.     Delta      r    Elong.  Phase     V
2023 10 11    04 02 40.6 -45 58 15   0.1728  1.0801   113.9    57.7    21.8
...
2023 10 26    02 41 55.7 -23 31 01   0.1594  1.1254   142.8    32.3    21.0
...
2023 11 03    02 09 45.6 -09 22 40   0.1729  1.1515   155.3    21.1    20.9
...
2023 11 09    01 51 55.8 -00 04 24   0.1935  1.1717   157.3    19.0    21.1
2023 11 10    01 49 28.2 +01 18 39   0.1978  1.1751   157.0    19.2    21.2
2023 11 11    01 47 09.1 +02 38 40   0.2022  1.1785   156.5    19.5    21.2
...
2023 11 17    01 36 03.8 +09 37 06   0.2329  1.1991   151.7    23.0    21.7
...
2023 11 25    01 27 57.3 +16 32 02   0.2826  1.2267   143.8    28.4    22.3
...
2023 12 10    01 28 07.4 +24 40 34   0.3949  1.2780   130.7    35.8    23.3
A. U. Tomatic                (C) Copyright 2023 MPC           M.P.E.C. 2023-V158
    
    
More information about the Iaude
mailing list